User: anonymous   Login
Location: Livonia
(42.3680°N, 83.3530°W)
Time: 08:10:48
(UTC-04:00)
Language:

MOZ.5/SAFIR/RUBIN 5/SL-8 - Orbit

View from above orbital plane
View from above orbital plane
View from above satellite
View from above satellite

Ground track
Ground track

The orbit data is extracted from the following two-line orbital elements,

1 28898U 05043G   17232.94451029 +.00000102 +00000-0 +30327-4 0  9998
2 28898 097.9355 019.8982 0019430 348.5592 011.5165 14.60189738252651
Epoch (UTC): 20 August 2017 22:40:05
Eccentricity: 0.0019430
inclination: 97.9355°
perigee height: 679 km
apogee height: 706 km
right ascension of ascending node: 19.8982°
argument of perigee: 348.5592°
revolutions per day: 14.60189738
mean anomaly at epoch: 11.5165°
orbit number at epoch: 25265

The dashed part of the orbit path shows where the satellite is in the earth's shadow,  

DLR